M I D A S
Marine Information and Data Acquisition System
Tripno 760 of the Zeeleeuw from 2004-06-25 06:46:14 to 2004-06-25 15:04:37
Back to CruiseResearch ActivitiesStationsMapUnderway DataData graphs

EquipmentUnitsComments
TimeDGPSUTC
LatitudeDGPSDM.mWGS84
LongitudeDGPSDM.mWGS84
SpeedMeteo Stationm/sRelative wind speed
DirectionMeteo StationdegRelative wind direction
TemperatureMeteo Stationdeg CelciusAir temperature
PressureMeteo StationPaAtmospheric pressure
HumidityMeteo Station%Relative humidity
Missing or incorrect values are displayed as -999
Metereological data collected by the RV Zeeleeuw from 2004-06-25 06:46:14 to 2004-06-25 15:04:37
                                                                                    Next 1000 lines
Time Latitude Longitude Speed Direction Temperature Pressure Humidity
2004-06-25 06:46:23 51°13.661 2°55.969 3.1 214 14.2 101470 65
2004-06-25 06:46:28 51°13.661 2°55.969 2.7 197 14.2 101460 65
2004-06-25 06:46:33 51°13.661 2°55.969 3.3 181 14.2 101460 65
2004-06-25 06:46:37 51°13.66 2°55.969 4 181 14.2 101460 65
2004-06-25 06:46:42 51°13.66 2°55.969 6.3 188 14.3 101460 66
2004-06-25 06:46:48 51°13.66 2°55.969 4.6 200 14.3 101460 66
2004-06-25 06:46:52 51°13.66 2°55.969 5.1 179 14.3 101460 66
2004-06-25 06:46:58 51°13.66 2°55.969 5.7 182 14.3 101460 66
2004-06-25 06:47:04 51°13.66 2°55.969 5.3 202 14.3 101460 66
2004-06-25 06:47:08 51°13.659 2°55.969 7.3 183 14.3 101460 67
2004-06-25 06:47:12 51°13.659 2°55.968 5.4   14.3 101460 67
2004-06-25 06:47:18 51°13.66 2°55.967 7 197 14.4 101470 67
2004-06-25 06:47:24 51°13.661 2°55.964 3.7 222 14.4 101470 67
2004-06-25 06:47:28 51°13.662 2°55.962 3.8 205 14.3 101470 66
2004-06-25 06:47:33 51°13.663 2°55.958 5.9 173 14.3 101470 66
2004-06-25 06:47:38 51°13.664 2°55.953 5.1 199 14.3 101480 64
2004-06-25 06:47:44 51°13.666 2°55.947 7.8 217 14.3 101480 64
2004-06-25 06:47:49 51°13.667 2°55.942 6 193 14.3 101480 64
2004-06-25 06:47:54 51°13.669 2°55.936 8.2 231 14.3 101470 64
2004-06-25 06:47:58 51°13.67 2°55.931 8.6 209 14.3 101470 65
2004-06-25 06:48:04 51°13.672 2°55.923 9.1 194 14.3 101470 65
2004-06-25 06:48:09 51°13.674 2°55.916 7.4 196 14.3 101470 65
2004-06-25 06:48:14 51°13.675 2°55.909 6.4   14.3 101470 65
2004-06-25 06:48:18 51°13.677 2°55.903 7 205 14.3 101470 64
2004-06-25 06:48:24 51°13.679 2°55.893 6.7 203 14.3 101470 64
2004-06-25 06:48:29 51°13.681 2°55.885 6.4 186 14.3 101480 65
2004-06-25 06:48:34 51°13.683 2°55.876 6.5 194 14.3 101480 65
2004-06-25 06:48:38 51°13.685 2°55.869 5.3 172 14.3 101470 65
2004-06-25 06:48:44 51°13.687 2°55.858 6.8 208 14.3 101470 65
2004-06-25 06:48:49 51°13.689 2°55.849 8.8 214 14.3 101470 66
2004-06-25 06:48:54 51°13.69 2°55.839 9.1 200 14.3 101470 66
2004-06-25 06:48:58 51°13.692 2°55.831 7.4 202 14.4 101470 66
2004-06-25 06:49:04 51°13.693 2°55.819 7.6 206 14.4 101470 66
2004-06-25 06:49:09 51°13.695 2°55.809 6.5 211 14.4 101470 65
2004-06-25 06:49:14 51°13.696 2°55.799 8.1   14.4 101470 65
2004-06-25 06:49:18 51°13.697 2°55.791 6 214 14.4 101480 64
2004-06-25 06:49:24 51°13.698 2°55.78 6.8 216 14.4 101480 64
2004-06-25 06:49:29 51°13.699 2°55.772 7.5 226 14.4 101480 64
2004-06-25 06:49:34 51°13.7 2°55.766 4.5 215 14.4 101480 64
2004-06-25 06:49:38 51°13.7 2°55.763 4.7 212 14.4 101480 64
2004-06-25 06:49:44 51°13.7 2°55.761 5.9 242 14.4 101480 64
2004-06-25 06:49:49 51°13.7 2°55.761 5.5 250 14.4 101480 64
2004-06-25 06:49:53 51°13.701 2°55.762 5.5 282 14.4 101480 65
2004-06-25 06:49:57 51°13.702 2°55.764 6.9 259 14.4 101470 65
2004-06-25 06:50:02 51°13.703 2°55.767 6 275 14.4 101470 65
2004-06-25 06:50:08 51°13.704 2°55.769 4 270 14.4 101460 66
2004-06-25 06:50:13 51°13.705 2°55.77 6.9   14.4 101460 66
2004-06-25 06:50:18 51°13.705 2°55.77 7.7 273 14.4 101470 66
2004-06-25 06:50:23 51°13.704 2°55.769 3.9 268 14.4 101470 66
2004-06-25 06:50:28 51°13.703 2°55.767 3.9 265 14.4 101470 66
2004-06-25 06:50:32 51°13.702 2°55.765 3.8 248 14.4 101470 66
2004-06-25 06:50:38 51°13.699 2°55.762 6.7 259 14.4 101470 66
2004-06-25 06:50:42 51°13.698 2°55.759 5.2 268 14.4 101470 66
2004-06-25 06:50:49 51°13.695 2°55.756 4.9 259 14.4 101470 65
2004-06-25 06:50:54 51°13.695 2°55.754 2.8 249 14.4 101470 65
2004-06-25 06:50:58 51°13.694 2°55.754 2.7 261 14.4 101460 65
2004-06-25 06:51:04 51°13.695 2°55.755 2.6 264 14.4 101460 65
2004-06-25 06:51:09 51°13.696 2°55.755 1.9 302 14.4 101470 65
2004-06-25 06:51:14 51°13.698 2°55.757 4.7   14.4 101470 65
2004-06-25 06:51:18 51°13.701 2°55.758 3.2 324 14.4 101470 65
2004-06-25 06:51:24 51°13.706 2°55.758 6 332 14.4 101470 65
2004-06-25 06:51:29 51°13.711 2°55.757 5.1 338 14.4 101470 65
2004-06-25 06:51:34 51°13.717 2°55.754 4.9 1 14.4 101470 65
2004-06-25 06:51:38 51°13.722 2°55.75 6.5 6 14.4 101450 65
2004-06-25 06:51:44 51°13.728 2°55.743 10.8 5 14.4 101450 65
2004-06-25 06:51:48 51°13.732 2°55.738 11 353 14.4 101460 65
2004-06-25 06:51:53 51°13.738 2°55.732 7.4 336 14.4 101460 65
2004-06-25 06:51:58 51°13.743 2°55.726 10.3 345 14.4 101460 65
2004-06-25 06:52:02 51°13.749 2°55.721 10.1 339 14.4 101460 64
2004-06-25 06:52:08 51°13.756 2°55.713 6.3 333 14.4 101460 64
2004-06-25 06:52:12 51°13.762 2°55.707 7   14.4 101460 64
2004-06-25 06:52:18 51°13.77 2°55.699 7.4 357 14.4 101460 64
2004-06-25 06:52:23 51°13.777 2°55.691 6.8 16 14.4 101460 64
2004-06-25 06:52:28 51°13.784 2°55.683 9.2 351 14.4 101460 64
2004-06-25 06:52:33 51°13.792 2°55.675 9.3 4 14.4 101460 64
2004-06-25 06:52:38 51°13.8 2°55.667 6.1 354 14.4 101450 64
2004-06-25 06:52:43 51°13.808 2°55.658 8.9 349 14.4 101450 64
2004-06-25 06:52:48 51°13.817 2°55.65 9.3 6 14.4 101460 64
2004-06-25 06:52:53 51°13.826 2°55.641 9.9 350 14.4 101460 64
2004-06-25 06:52:58 51°13.835 2°55.633 11.3 353 14.4 101460 64
2004-06-25 06:53:02 51°13.842 2°55.627 10.5 342 14.4 101460 64
2004-06-25 06:53:08 51°13.853 2°55.617 8 353 14.4 101460 64
2004-06-25 06:53:13 51°13.863 2°55.61 8.7   14.4 101460 64
2004-06-25 06:53:18 51°13.873 2°55.603 8.2 340 14.3 101450 63
2004-06-25 06:53:22 51°13.882 2°55.598 13.9 345 14.3 101450 63
2004-06-25 06:53:28 51°13.894 2°55.589 15 335 14.3 101450 64
2004-06-25 06:53:32 51°13.902 2°55.584 10.8 329 14.3 101450 64
2004-06-25 06:53:38 51°13.915 2°55.575 11.7 330 14.3 101450 64
2004-06-25 06:53:43 51°13.925 2°55.568 9.7 338 14.3 101450 64
2004-06-25 06:53:48 51°13.935 2°55.56 12.1 332 14.3 101440 64
2004-06-25 06:53:53 51°13.946 2°55.553 8.7 346 14.3 101440 64
2004-06-25 06:53:56 51°13.952 2°55.548 9.7 346 14.3 101430 64
2004-06-25 06:54:04 51°13.969 2°55.536 8.6 324 14.3 101430 64
2004-06-25 06:54:08 51°13.978 2°55.53 7.9 336 14.3 101450 64
2004-06-25 06:54:13 51°13.989 2°55.523 7.4   14.3 101450 64
2004-06-25 06:54:18 51°14 2°55.515 8.7 333 14.3 101450 64
2004-06-25 06:54:21 51°14.006 2°55.51 9.6 349 14.3 101450 64
2004-06-25 06:54:28 51°14.022 2°55.499 14.3 339 14.3 101460 65
2004-06-25 06:54:32 51°14.031 2°55.493 11.6 325 14.3 101460 65
2004-06-25 06:54:38 51°14.044 2°55.484 9.5 339 14.3 101460 65
2004-06-25 06:54:43 51°14.055 2°55.476 12 334 14.3 101460 65
2004-06-25 06:54:48 51°14.067 2°55.468 13.6 335 14.3 101440 65
2004-06-25 06:54:53 51°14.078 2°55.46 12.6 339 14.3 101440 65
2004-06-25 06:54:58 51°14.089 2°55.453 14.2 332 14.3 101420 65
2004-06-25 06:55:04 51°14.103 2°55.443 13.3 332 14.3 101420 65
2004-06-25 06:55:08 51°14.112 2°55.437 15.2 331 14.3 101440 66
2004-06-25 06:55:18 51°14.135 2°55.42 15.7 337 14.3 101440 66
2004-06-25 06:55:23 51°14.146 2°55.411 16 337 14.3 101440 66
2004-06-25 06:55:28 51°14.158 2°55.401 15.5 339 14.3 101430 66
2004-06-25 06:55:32 51°14.167 2°55.393 15.5 345 14.3 101430 66
2004-06-25 06:55:37 51°14.178 2°55.381 14.2 347 14.3 101420 67
2004-06-25 06:55:43 51°14.192 2°55.366 13.4 353 14.3 101420 67
2004-06-25 06:55:48 51°14.203 2°55.353 15 347 14.3 101410 66
2004-06-25 06:55:53 51°14.214 2°55.338 16 347 14.3 101410 66
2004-06-25 06:55:58 51°14.224 2°55.323 13.5 356 14.3 101410 68
2004-06-25 06:56:03 51°14.235 2°55.309 14.1 351 14.3 101410 68
2004-06-25 06:56:08 51°14.245 2°55.293 16.4 357 14.4 101440 69
2004-06-25 06:56:18 51°14.265 2°55.259 14.5 356 14.3 101430 67
2004-06-25 06:56:24 51°14.276 2°55.238 16 356 14.3 101430 67
2004-06-25 06:56:28 51°14.283 2°55.224 16.4 358 14.3 101420 67
2004-06-25 06:56:33 51°14.292 2°55.205 16.3 355 14.3 101420 67
2004-06-25 06:56:37 51°14.299 2°55.191 17.8 351 14.3 101410 68
2004-06-25 06:56:43 51°14.31 2°55.169 17 349 14.3 101410 68
2004-06-25 06:56:48 51°14.319 2°55.151 17.2 352 14.3 101420 68
2004-06-25 06:56:53 51°14.328 2°55.133 16.5 352 14.3 101420 68
2004-06-25 06:56:58 51°14.338 2°55.116 16.5 353 14.3 101420 69
2004-06-25 06:57:02 51°14.346 2°55.102 17 349 14.3 101420 69
2004-06-25 06:57:08 51°14.358 2°55.081 17.5 347 14.3 101410 67
2004-06-25 06:57:13 51°14.368 2°55.064 16.6   14.3 101410 67
2004-06-25 06:57:17 51°14.377 2°55.05 14.3 345 14.2 101390 67
2004-06-25 06:57:22 51°14.388 2°55.035 16.1 338 14.2 101390 67
2004-06-25 06:57:28 51°14.403 2°55.018 16 338 14.3 101440 68
2004-06-25 06:57:32 51°14.414 2°55.007 15.3 335 14.3 101440 68
2004-06-25 06:57:38 51°14.43 2°54.994 14.7 327 14.3 101440 68
2004-06-25 06:57:44 51°14.448 2°54.982 13.3 327 14.3 101420 67
2004-06-25 06:57:48 51°14.46 2°54.976 14.3 331 14.3 101420 67
2004-06-25 06:57:52 51°14.472 2°54.969 16.1 328 14.3 101420 68
2004-06-25 06:57:58 51°14.49 2°54.96 16 329 14.3 101410 69
2004-06-25 06:58:04 51°14.508 2°54.951 16.6 330 14.3 101410 69
2004-06-25 06:58:08 51°14.521 2°54.945 15.6 327 14.3 101440 70
2004-06-25 06:58:12 51°14.533 2°54.939 15.8   14.3 101440 70
2004-06-25 06:58:18 51°14.552 2°54.928 13.8 334 14.3 101410 68
2004-06-25 06:58:23 51°14.567 2°54.92 15.5 334 14.3 101410 68
2004-06-25 06:58:28 51°14.582 2°54.911 16.6 333 14.2 101430 67
2004-06-25 06:58:32 51°14.593 2°54.903 17.9 339 14.2 101430 67
2004-06-25 06:58:38 51°14.61 2°54.89 17.1 340 14.2 101400 68
2004-06-25 06:58:43 51°14.625 2°54.879 16 341 14.2 101400 68
2004-06-25 06:58:48 51°14.639 2°54.866 15.3 339 14.3 101440 69
2004-06-25 06:58:50 51°14.645 2°54.861 14.6 337 14.3 101440 69
2004-06-25 06:58:58 51°14.667 2°54.843 17.3 333 14.3 101420 69
2004-06-25 06:59:03 51°14.682 2°54.833 15.2 338 14.3 101420 69
2004-06-25 06:59:08 51°14.697 2°54.824 17.1 330 14.3 101420 69
2004-06-25 06:59:12 51°14.709 2°54.817 14.6 332 14.3 101420 69
2004-06-25 06:59:17 51°14.725 2°54.81 16.7 329 14.3 101430 69
2004-06-25 06:59:23 51°14.744 2°54.804 16.4 328 14.3 101430 69
2004-06-25 06:59:28 51°14.76 2°54.799 15.5 324 14.2 101410 68
2004-06-25 06:59:33 51°14.776 2°54.792 14.6 333 14.2 101410 68
2004-06-25 06:59:38 51°14.792 2°54.785 17.5 334 14.2 101430 68
2004-06-25 06:59:43 51°14.808 2°54.778 17.4 331 14.2 101430 68
2004-06-25 06:59:48 51°14.824 2°54.77 16 331 14.2 101420 69
2004-06-25 06:59:53 51°14.841 2°54.762 15.5 335 14.2 101420 69
2004-06-25 06:59:58 51°14.857 2°54.754 16.1 329 14.2 101410 69
2004-06-25 07:00:03 51°14.873 2°54.746 15.4 327 14.2 101410 69
2004-06-25 07:00:08 51°14.889 2°54.738 17.1 334 14.2 101400 68
2004-06-25 07:00:13 51°14.904 2°54.73 16.1 336 14.2 101400 68
2004-06-25 07:00:18 51°14.92 2°54.723 15.5 336 14.2 101430 68
2004-06-25 07:00:23 51°14.936 2°54.716 15.5 334 14.2 101430 68
2004-06-25 07:00:28 51°14.952 2°54.708 17.8 333 14.2 101390 68
2004-06-25 07:00:33 51°14.968 2°54.701 16.8 337 14.2 101390 68
2004-06-25 07:00:37 51°14.981 2°54.695 16.6 330 14.2 101440 69
2004-06-25 07:00:41 51°14.993 2°54.689 15.9 327 14.2 101440 69
2004-06-25 07:00:48 51°15.016 2°54.678 17.3 330 14.2 101430 67
2004-06-25 07:00:53 51°15.032 2°54.67 16.4 330 14.2 101430 67
2004-06-25 07:01:00 51°15.054 2°54.66 16.8 326 14.2 101430 67
2004-06-25 07:01:07 51°15.076 2°54.65 17.2 325 14.2 101400 67
2004-06-25 07:01:13 51°15.096 2°54.642 14.5 327 14.2 101400 67
2004-06-25 07:01:17 51°15.109 2°54.636 16.7 338 14.2 101430 68
2004-06-25 07:01:21 51°15.122 2°54.63 16.1 329 14.2 101430 68
2004-06-25 07:01:26 51°15.139 2°54.624 14.8 329 14.2 101430 68
2004-06-25 07:01:32 51°15.158 2°54.616 17.1 331 14.1 101410 67
2004-06-25 07:01:37 51°15.174 2°54.61 16.5 326 14.1 101410 67
2004-06-25 07:01:40 51°15.184 2°54.606 16.5 333 14.2 101430 68
2004-06-25 07:01:46 51°15.204 2°54.597 16.4 330 14.2 101430 68
2004-06-25 07:01:50 51°15.217 2°54.592 17.2 332 14.2 101420 68
2004-06-25 07:01:57 51°15.24 2°54.582 16.8 333 14.2 101420 68
2004-06-25 07:02:00 51°15.25 2°54.578 15.2 331 14.2 101400 68
2004-06-25 07:02:06 51°15.27 2°54.57 16.7 328 14.2 101400 68
2004-06-25 07:02:12 51°15.289 2°54.563 17.2 328 14.2 101420 68
2004-06-25 07:02:17 51°15.305 2°54.556 16.8 331 14.2 101420 68
2004-06-25 07:02:21 51°15.318 2°54.551 15.6 328 14.2 101410 68
2004-06-25 07:02:28 51°15.341 2°54.543 16.4 328 14.2 101410 68
2004-06-25 07:02:32 51°15.354 2°54.538 15.4 332 14.1 101430 67
2004-06-25 07:02:37 51°15.37 2°54.53 14.5 335 14.1 101430 67
2004-06-25 07:02:41 51°15.384 2°54.525 15.8 332 14.1 101400 67
2004-06-25 07:02:47 51°15.404 2°54.517 16 328 14.1 101400 67
2004-06-25 07:02:52 51°15.42 2°54.511 15.7 333 14.2 101450 68
2004-06-25 07:02:54 51°15.427 2°54.509 16.5 333 14.2 101450 68
2004-06-25 07:03:00 51°15.447 2°54.5 14.9 336 14.2 101400 68
2004-06-25 07:03:06 51°15.467 2°54.492 16.9 338 14.2 101410 68
2004-06-25 07:03:12 51°15.486 2°54.483 15.7 332 14.2 101410 68
2004-06-25 07:03:17 51°15.504 2°54.477 14.8 328 14.2 101410 68
2004-06-25 07:03:22 51°15.52 2°54.469 16 333 14.1 101410 66
2004-06-25 07:03:27 51°15.537 2°54.462 15 328 14.1 101410 66
2004-06-25 07:03:33 51°15.557 2°54.453 17.5 334 14.1 101430 68
2004-06-25 07:03:36 51°15.567 2°54.449 17.7 328 14.1 101430 68
2004-06-25 07:03:42 51°15.586 2°54.44 17.3 330 14.1 101430 68
2004-06-25 07:03:45 51°15.597 2°54.436 18 328 14.1 101430 68
2004-06-25 07:03:52 51°15.619 2°54.426 17.2 330 14.2 101440 68
2004-06-25 07:03:57 51°15.636 2°54.418 15.8 329 14.2 101440 68
2004-06-25 07:04:01 51°15.649 2°54.414 17.5 333 14.1 101410 67
2004-06-25 07:04:06 51°15.665 2°54.407 17.7 329 14.1 101410 67
2004-06-25 07:04:12 51°15.685 2°54.398 17.1 329 14.1 101380 67
2004-06-25 07:04:17 51°15.701 2°54.391 17.2 328 14.2 101380 68
2004-06-25 07:04:22 51°15.717 2°54.385 16.8 330 14.2 101380 68
2004-06-25 07:04:26 51°15.731 2°54.38 16.3 329 14.2 101380 68
2004-06-25 07:04:32 51°15.751 2°54.372 15.6 334 14.2 101430 68
2004-06-25 07:04:36 51°15.764 2°54.367 16.7 333 14.2 101430 68
2004-06-25 07:04:41 51°15.78 2°54.36 17.4 328 14.1 101410 67
2004-06-25 07:04:47 51°15.8 2°54.352 17.7 326 14.1 101410 67
2004-06-25 07:04:52 51°15.816 2°54.345 16.1 325 14.1 101430 66
2004-06-25 07:04:56 51°15.83 2°54.339 16.7 330 14.1 101430 66
2004-06-25 07:05:02 51°15.849 2°54.333 14.1 331 14.1 101430 67
2004-06-25 07:05:08 51°15.868 2°54.324 14.3 326 14.1 101430 67
2004-06-25 07:05:10 51°15.875 2°54.322 17.4 327 14.1 101410 65
2004-06-25 07:05:21 51°15.91 2°54.309 15.9 325 14.1 101410 65
2004-06-25 07:05:28 51°15.933 2°54.3 15.3 327 14.1 101410 65
2004-06-25 07:05:30 51°15.939 2°54.297 15.1 328 14.1 101420 67
2004-06-25 07:05:37 51°15.962 2°54.288 16 326 14.1 101420 67
2004-06-25 07:05:42 51°15.979 2°54.282 16.5 326 14.1 101420 67
2004-06-25 07:05:47 51°15.996 2°54.276 15.5 328 14.1 101420 67
2004-06-25 07:05:52 51°16.012 2°54.269 16.2 328 14.1 101420 65
2004-06-25 07:05:57 51°16.029 2°54.263 17 323 14.1 101420 66
2004-06-25 07:06:02 51°16.046 2°54.257 15.3 322 14.1 101420 66
2004-06-25 07:06:06 51°16.06 2°54.253 13.5 330 14.1 101420 66
2004-06-25 07:06:11 51°16.077 2°54.249 13.5 324 14.1 101440 65
2004-06-25 07:06:17 51°16.097 2°54.245 16.2 324 14.1 101410 65
2004-06-25 07:06:19 51°16.104 2°54.244 14.8 319 14.1 101410 65
2004-06-25 07:06:26 51°16.126 2°54.242 14.5 317 14.1 101410 65
2004-06-25 07:06:32 51°16.143 2°54.24 12.4 324 14.1 101430 66
2004-06-25 07:06:36 51°16.153 2°54.241 13.2 312 14.1 101430 66
2004-06-25 07:06:42 51°16.168 2°54.241 12.3 34 14.1 101430 66
2004-06-25 07:06:46 51°16.177 2°54.242 11.4 42 14.1 101430 66
2004-06-25 07:06:52 51°16.19 2°54.243 13.1 310 14.1 101410 66
2004-06-25 07:06:57 51°16.199 2°54.245 11.8 42 14.1 101410 66
2004-06-25 07:07:02 51°16.208 2°54.248 12.3 310 14.1 101440 67
2004-06-25 07:07:05 51°16.213 2°54.25 11.3 309 14.1 101460 68
2004-06-25 07:07:11 51°16.222 2°54.254 10.1 308 14.1 101460 68
2004-06-25 07:07:17 51°16.231 2°54.259 11.9 298 14.1 101460 68
2004-06-25 07:07:22 51°16.237 2°54.263 11 294 14.1 101450 68
2004-06-25 07:07:26 51°16.242 2°54.267 11.4 290 14.1 101450 68
2004-06-25 07:07:32 51°16.249 2°54.274 10.8 286 14.2 101470 68
2004-06-25 07:07:37 51°16.255 2°54.279 9.1 279 14.2 101470 68
2004-06-25 07:07:42 51°16.259 2°54.286 11.1 272 14.2 101470 68
2004-06-25 07:07:47 51°16.263 2°54.291 10.4 268 14.2 101470 68
2004-06-25 07:07:52 51°16.267 2°54.296 10.8 268 14.1 101460 68
2004-06-25 07:07:57 51°16.27 2°54.302 11 271 14.1 101460 68
2004-06-25 07:08:02 51°16.273 2°54.306 10.3 262 14.1 101470 67
2004-06-25 07:08:07 51°16.275 2°54.311 9.2 259 14.1 101470 67
2004-06-25 07:08:12 51°16.277 2°54.314 9.8 254 14.1 101470 67
2004-06-25 07:08:17 51°16.278 2°54.318 7.5 259 14.1 101470 67
2004-06-25 07:08:22 51°16.28 2°54.321 6.7 256 14.1 101480 67
2004-06-25 07:08:27 51°16.281 2°54.323 8.6 258 14.1 101480 67
2004-06-25 07:08:32 51°16.281 2°54.327 9 256 14.2 101480 69
2004-06-25 07:08:37 51°16.282 2°54.329 7.7 252 14.2 101480 69
2004-06-25 07:08:41 51°16.283 2°54.332 9.8 258 14.2 101490 70
2004-06-25 07:08:47 51°16.284 2°54.336 10.4 260 14.2 101490 70
2004-06-25 07:08:52 51°16.284 2°54.34 10.2 260 14.2 101480 69
2004-06-25 07:08:57 51°16.285 2°54.343 9.7 259 14.2 101490 67
2004-06-25 07:09:02 51°16.287 2°54.345 8.1 248 14.2 101490 67
2004-06-25 07:09:06 51°16.286 2°54.35 7.4 251 14.2 101490 67
2004-06-25 07:09:10 51°16.287 2°54.352 7.9 257 14.1 101470 67
2004-06-25 07:09:16 51°16.288 2°54.357 10.1 260 14.1 101470 67
2004-06-25 07:09:21 51°16.289 2°54.359 12.1 261 14.2 101470 68
2004-06-25 07:09:26 51°16.29 2°54.362 7.5 255 14.2 101470 68
2004-06-25 07:09:32 51°16.291 2°54.366 8.7 257 14.1 101480 68
2004-06-25 07:09:37 51°16.291 2°54.371 9.9 258 14.1 101480 68
2004-06-25 07:09:40 51°16.292 2°54.372 9.3 260 14.1 101480 67
2004-06-25 07:09:47 51°16.293 2°54.378 9.6 258 14.1 101480 67
2004-06-25 07:09:52 51°16.294 2°54.38 9.7 259 14.1 101470 66
2004-06-25 07:09:55 51°16.294 2°54.383 9.7 261 14 101470 66
2004-06-25 07:10:02 51°16.296 2°54.387 8.3 259 14 101470 66
2004-06-25 07:10:07 51°16.296 2°54.39 10 261 14 101470 66
2004-06-25 07:10:10 51°16.297 2°54.392 8.8 257 14 101480 65
2004-06-25 07:10:17 51°16.298 2°54.396 8.3 259 14 101480 65
2004-06-25 07:10:22 51°16.299 2°54.4 10.7 257 14 101470 66
2004-06-25 07:10:27 51°16.3 2°54.404 11 267 14 101470 66
2004-06-25 07:10:32 51°16.301 2°54.408 10.9 269 14 101480 67
2004-06-25 07:10:37 51°16.302 2°54.411 8.1 261 14.1 101480 68
2004-06-25 07:10:42 51°16.304 2°54.414 9.9 265 14.1 101480 68
2004-06-25 07:10:46 51°16.305 2°54.418 8.8 270 14.1 101480 68
2004-06-25 07:10:50 51°16.307 2°54.42 9 267 14.1 101470 69
2004-06-25 07:10:57 51°16.31 2°54.426 11.3 267 14.1 101470 69
2004-06-25 07:11:02 51°16.312 2°54.43 11.5 268 14.1 101470 69
2004-06-25 07:11:07 51°16.314 2°54.433 8.2 272 14.1 101470 69
2004-06-25 07:11:12 51°16.317 2°54.438 10.4 275 14.1 101470 70
2004-06-25 07:11:17 51°16.319 2°54.443 12.4 265 14.1 101470 70
2004-06-25 07:11:22 51°16.322 2°54.447 12 263 14.2 101480 70
2004-06-25 07:11:26 51°16.325 2°54.45 12.3 274 14.2 101480 70
2004-06-25 07:11:32 51°16.329 2°54.456 11 277 14.2 101480 70
2004-06-25 07:11:37 51°16.332 2°54.461 13.9 269 14.1 101480 69
2004-06-25 07:11:42 51°16.335 2°54.466 12.5 272 14.1 101480 69
2004-06-25 07:11:47 51°16.338 2°54.471 11.2 277 14.1 101480 69
2004-06-25 07:11:50 51°16.341 2°54.474 9.2 278 14.2 101470 69
2004-06-25 07:11:57 51°16.345 2°54.481 10.5 276 14.2 101470 69
2004-06-25 07:12:02 51°16.348 2°54.486 13.3 271 14.2 101480 70
2004-06-25 07:12:07 51°16.352 2°54.491 11.5 266 14.2 101470 69
2004-06-25 07:12:12 51°16.355 2°54.497 12.2 272 14.2 101470 69
2004-06-25 07:12:16 51°16.357 2°54.501 13.1 267 14.2 101480 70
2004-06-25 07:12:22 51°16.36 2°54.508 13 270 14.2 101480 70
2004-06-25 07:12:27 51°16.363 2°54.513 13.3 266 14.2 101480 70
2004-06-25 07:12:32 51°16.366 2°54.518 11.5 266 14.1 101460 67
2004-06-25 07:12:37 51°16.368 2°54.523 10.8 264 14.1 101460 67
2004-06-25 07:12:41 51°16.371 2°54.527 11.9 261 14.1 101470 67
2004-06-25 07:12:46 51°16.373 2°54.532 9.6 258 14.1 101480 67
2004-06-25 07:12:52 51°16.377 2°54.539 8.4 258 14.1 101480 67
2004-06-25 07:12:57 51°16.379 2°54.545 12.8 263 14.1 101470 66
2004-06-25 07:13:02 51°16.382 2°54.549 6.5 258 14.1 101470 66
2004-06-25 07:13:07 51°16.384 2°54.554 4.8 253 14.1 101470 66
2004-06-25 07:13:12 51°16.386 2°54.561 10.3 258 14.1 101480 66
2004-06-25 07:13:17 51°16.389 2°54.566 7 255 14.1 101480 65
2004-06-25 07:13:20 51°16.39 2°54.569 8.1 256 14.1 101480 65
2004-06-25 07:13:26 51°16.394 2°54.575 7.5 256 14.1 101480 66
2004-06-25 07:13:31 51°16.396 2°54.58 8 246 14.1 101480 66
2004-06-25 07:13:37 51°16.399 2°54.588 7.2 255 14.1 101480 66
2004-06-25 07:13:42 51°16.402 2°54.592 8 255 14.1 101480 66
2004-06-25 07:13:46 51°16.404 2°54.596 7.7 250 14.1 101480 66
2004-06-25 07:13:52 51°16.408 2°54.602 6.7 251 14.1 101480 67
2004-06-25 07:13:57 51°16.41 2°54.609 8.5 248 14.1 101480 67
2004-06-25 07:14:02 51°16.413 2°54.614 6.3 249 14.1 101490 68
2004-06-25 07:14:07 51°16.415 2°54.619 6.9 255 14.1 101490 68
2004-06-25 07:14:12 51°16.417 2°54.626 7.5 248 14.1 101480 66
2004-06-25 07:14:17 51°16.42 2°54.63 6.5 239 14.1 101480 66
2004-06-25 07:14:22 51°16.423 2°54.636 7.1 245 14.1 101490 67
2004-06-25 07:14:27 51°16.425 2°54.643 6.3 248 14.1 101490 67
2004-06-25 07:14:32 51°16.427 2°54.648 6.7 243 14.1 101480 67
2004-06-25 07:14:37 51°16.429 2°54.654 6.3 248 14.1 101480 68
2004-06-25 07:14:41 51°16.431 2°54.659 6.5 256 14.1 101480 68
2004-06-25 07:14:46 51°16.433 2°54.665 8 243 14.1 101490 68
2004-06-25 07:14:52 51°16.435 2°54.672 7.7 247 14.1 101490 68
2004-06-25 07:14:57 51°16.438 2°54.678 8.5 248 14.1 101490 68
2004-06-25 07:15:01 51°16.439 2°54.683 8.1 236 14.1 101490 69
2004-06-25 07:15:07 51°16.442 2°54.69 8.8 249 14.1 101490 69
2004-06-25 07:15:12 51°16.444 2°54.696 7.5 247 14.2 101480 71
2004-06-25 07:15:16 51°16.445 2°54.701 7.1 250 14.2 101480 71
2004-06-25 07:15:22 51°16.448 2°54.708 8.6 245 14.1 101480 70
2004-06-25 07:15:27 51°16.449 2°54.714 9.5 244 14.1 101480 70
2004-06-25 07:15:32 51°16.452 2°54.721 11 244 14.1 101490 69
2004-06-25 07:15:37 51°16.454 2°54.726 10.7 243 14.1 101490 70
2004-06-25 07:15:41 51°16.455 2°54.732 12 241 14.1 101490 70
2004-06-25 07:15:46 51°16.457 2°54.737 10.2 238 14.1 101490 70
2004-06-25 07:15:52 51°16.459 2°54.745 10 250 14.1 101490 69
2004-06-25 07:15:57 51°16.461 2°54.751 9.9 242 14.1 101490 68
2004-06-25 07:16:01 51°16.463 2°54.756 9.6 242 14.1 101490 68
2004-06-25 07:16:06 51°16.464 2°54.762 8.6 251 14.1 101490 68
2004-06-25 07:16:12 51°16.467 2°54.769 10.3 238 14 101480 68
2004-06-25 07:16:17 51°16.469 2°54.776 10.6 240 14 101480 68
2004-06-25 07:16:22 51°16.471 2°54.781 9.5 242 14 101480 68
2004-06-25 07:16:27 51°16.473 2°54.787 11.4 240 14 101480 68
2004-06-25 07:16:32 51°16.475 2°54.794 9.9 242 14 101490 68
2004-06-25 07:16:37 51°16.477 2°54.799 8.8 248 14 101490 68
2004-06-25 07:16:41 51°16.478 2°54.804 8.9 245 14 101490 68
2004-06-25 07:16:46 51°16.481 2°54.81 7.7 256 14 101490 67
2004-06-25 07:16:52 51°16.483 2°54.817 10 247 14 101490 67
2004-06-25 07:16:57 51°16.485 2°54.823 9.8 242 14 101490 67
2004-06-25 07:17:01 51°16.487 2°54.828 9.1 248 13.9 101490 66
2004-06-25 07:17:07 51°16.489 2°54.835 9.7 245 13.9 101490 66
2004-06-25 07:17:12 51°16.491 2°54.84 10.5 244 14 101490 68
2004-06-25 07:17:17 51°16.494 2°54.846 9.9 243 14 101490 68
2004-06-25 07:17:22 51°16.496 2°54.852 8.7 246 13.9 101490 66
2004-06-25 07:17:26 51°16.497 2°54.857 8.5 249 13.9 101480 67
2004-06-25 07:17:32 51°16.5 2°54.863 8.9 245 13.9 101480 67
2004-06-25 07:17:37 51°16.502 2°54.869 10.6 241 13.9 101480 67
2004-06-25 07:17:42 51°16.504 2°54.875 10 243 13.9 101490 67
2004-06-25 07:17:47 51°16.506 2°54.881 9.5 244 13.9 101490 67
2004-06-25 07:17:52 51°16.509 2°54.887 8.6 248 13.9 101500 67
2004-06-25 07:17:56 51°16.51 2°54.891 8 252 13.9 101500 67
2004-06-25 07:18:02 51°16.513 2°54.897 7.4 251 13.9 101490 67
2004-06-25 07:18:07 51°16.514 2°54.904 7 251 13.9 101490 67
2004-06-25 07:18:12 51°16.517 2°54.909 7.5 244 13.9 101500 66
2004-06-25 07:18:17 51°16.519 2°54.914 8.5 246 13.9 101500 66
2004-06-25 07:18:20 51°16.52 2°54.919 8 259 13.9 101500 67
2004-06-25 07:18:26 51°16.523 2°54.925 8.8 246 13.9 101500 67
2004-06-25 07:18:32 51°16.525 2°54.932 6.7 252 13.9 101500 68
2004-06-25 07:18:37 51°16.527 2°54.938 5.9 246 13.9 101500 68
2004-06-25 07:18:42 51°16.53 2°54.944 8.7 247 13.9 101480 68
2004-06-25 07:18:45 51°16.531 2°54.947 9.4 243 14 101500 69
2004-06-25 07:18:52 51°16.534 2°54.955 6.9 244 14 101500 69
2004-06-25 07:18:57 51°16.536 2°54.96 7.9 243 14 101500 69
2004-06-25 07:19:02 51°16.538 2°54.967 9.1 244 14 101490 70
2004-06-25 07:19:06 51°16.54 2°54.971 8.7 245 14 101490 70
2004-06-25 07:19:12 51°16.542 2°54.979 9.7 242 13.9 101500 68
2004-06-25 07:19:17 51°16.544 2°54.984 7.9 247 13.9 101490 68
2004-06-25 07:19:21 51°16.545 2°54.989 8.7 241 13.9 101490 68
2004-06-25 07:19:26 51°16.548 2°54.994 10.5 238 13.9 101490 68
2004-06-25 07:19:38 51°16.552 2°55.008 9.8 239 13.9 101510 67
2004-06-25 07:19:41 51°16.554 2°55.011 6.7 253 13.9 101510 67
2004-06-25 07:19:48 51°16.556 2°55.019 8.2 260 13.9 101500 68
2004-06-25 07:19:53 51°16.558 2°55.024 6.4 255 13.9 101500 68
2004-06-25 07:19:58 51°16.561 2°55.029 6.2 255 14 101490 69
2004-06-25 07:20:04 51°16.563 2°55.036 6.2 252 14 101490 69
2004-06-25 07:20:08 51°16.564 2°55.041 7.7 250 14 101490 70
2004-06-25 07:20:12 51°16.566 2°55.045 9.3 247 14 101490 70
2004-06-25 07:20:17 51°16.568 2°55.05 6.8 254 14.1 101480 71
2004-06-25 07:20:22 51°16.57 2°55.056 8.2 258 14.1 101480 71
2004-06-25 07:20:28 51°16.572 2°55.063 8.1 256 14.1 101510 70
2004-06-25 07:20:33 51°16.575 2°55.068 7.1 250 14.1 101510 70
2004-06-25 07:20:38 51°16.577 2°55.074 7.3 251 14 101500 68
2004-06-25 07:20:42 51°16.578 2°55.078 9.2 259 14 101500 68
2004-06-25 07:20:48 51°16.581 2°55.084 7.2 250 14.1 101490 69
2004-06-25 07:20:53 51°16.583 2°55.09 7.6 253 14.1 101490 69
2004-06-25 07:20:57 51°16.584 2°55.094 7.6 248 14 101500 68
2004-06-25 07:21:01 51°16.586 2°55.098 8.7 253 14 101500 68
2004-06-25 07:21:08 51°16.589 2°55.106 7 253 14 101500 68
2004-06-25 07:21:13 51°16.591 2°55.111 7.2 255 14 101500 68
2004-06-25 07:21:18 51°16.593 2°55.116 9.6 260 14 101500 68
2004-06-25 07:21:21 51°16.594 2°55.119 6.7 257 14 101500 68
2004-06-25 07:21:28 51°16.597 2°55.127 9.1 259 14 101500 68
2004-06-25 07:21:33 51°16.6 2°55.131 6.5 255 14 101500 68
2004-06-25 07:21:37 51°16.601 2°55.137 8 254 14 101500 68
2004-06-25 07:21:41 51°16.603 2°55.14 9.1 259 14 101500 68
2004-06-25 07:21:48 51°16.606 2°55.147 6.5 247 14 101490 69
2004-06-25 07:21:53 51°16.607 2°55.153 7.9 255 14 101490 69
2004-06-25 07:21:58 51°16.61 2°55.158 9.7 262 14 101500 68
2004-06-25 07:22:03 51°16.612 2°55.163 7.7 253 14 101500 68
2004-06-25 07:22:08 51°16.614 2°55.168 8.4 257 14 101490 68
2004-06-25 07:22:13 51°16.616 2°55.172 7.5 253 14 101490 68
2004-06-25 07:22:17 51°16.617 2°55.177 8.5 253 14.1 101510 69
2004-06-25 07:22:21 51°16.62 2°55.18 6.7 253 14.1 101510 69
2004-06-25 07:22:28 51°16.623 2°55.187 7.8 257 14 101500 68
2004-06-25 07:22:33 51°16.625 2°55.192 6.9 252 14 101500 68
2004-06-25 07:22:37 51°16.626 2°55.197 6.9 254 14 101500 66
2004-06-25 07:22:41 51°16.628 2°55.2 7.2 257 14 101500 66
2004-06-25 07:22:48 51°16.631 2°55.207 10.1 257 13.9 101500 66
2004-06-25 07:22:53 51°16.634 2°55.212 7.4 253 13.9 101500 66
2004-06-25 07:22:57 51°16.635 2°55.216 6.7 255 14 101500 68
2004-06-25 07:23:01 51°16.637 2°55.221 7.6 254 14 101500 68
2004-06-25 07:23:07 51°16.64 2°55.227 8.1 254 13.9 101500 67
2004-06-25 07:23:13 51°16.643 2°55.233 7.4 250 13.9 101500 67
2004-06-25 07:23:17 51°16.644 2°55.238 7.7 255 13.9 101500 68
2004-06-25 07:23:23 51°16.647 2°55.244 8.5 255 13.9 101500 68
2004-06-25 07:23:28 51°16.649 2°55.249 8.7 257 14 101500 68
2004-06-25 07:23:33 51°16.652 2°55.254 6.1 254 14 101500 68
2004-06-25 07:23:37 51°16.653 2°55.258 7 248 13.9 101510 68
2004-06-25 07:23:41 51°16.655 2°55.263 8.6 248 13.9 101510 68
2004-06-25 07:23:50 51°16.659 2°55.272 8.5 256 13.9 101500 66
2004-06-25 07:23:55 51°16.661 2°55.278 7.9 257 13.9 101500 66
2004-06-25 07:24:00 51°16.664 2°55.282 9.5 246 13.9 101500 68
2004-06-25 07:24:05 51°16.666 2°55.289 8.9 252 13.9 101500 68
2004-06-25 07:24:10 51°16.668 2°55.294 7.6 250 13.9 101510 67
2004-06-25 07:24:13 51°16.669 2°55.298 10.5 241 13.9 101510 67
2004-06-25 07:24:20 51°16.672 2°55.306 8 254 13.9 101510 68
2004-06-25 07:24:29 51°16.676 2°55.316 10 244 13.9 101500 68
2004-06-25 07:24:35 51°16.678 2°55.323 11.5 237 13.9 101500 68
2004-06-25 07:24:40 51°16.68 2°55.33 9.7 240 13.9 101500 68
2004-06-25 07:24:44 51°16.682 2°55.334 10.2 236 13.9 101500 68
2004-06-25 07:24:50 51°16.684 2°55.341 9 245 13.9 101510 68
2004-06-25 07:24:55 51°16.685 2°55.348 10 241 13.9 101510 68
2004-06-25 07:25:00 51°16.688 2°55.354 10.1 239 13.9 101500 67
2004-06-25 07:25:05 51°16.689 2°55.361 10.1 239 13.9 101500 67
2004-06-25 07:25:10 51°16.692 2°55.367 9.6 238 13.9 101500 67
2004-06-25 07:25:16 51°16.693 2°55.375 9.4 238 13.9 101500 67
2004-06-25 07:25:20 51°16.694 2°55.38 9.8 235 13.9 101510 67
2004-06-25 07:25:25 51°16.696 2°55.386 9.4 233 13.9 101510 67
2004-06-25 07:25:29 51°16.698 2°55.392 9.7 229 13.9 101510 67
2004-06-25 07:25:34 51°16.699 2°55.398 8.1 225 13.9 101510 67
2004-06-25 07:25:40 51°16.701 2°55.406 8.3 230 13.9 101500 68
2004-06-25 07:25:44 51°16.702 2°55.411 8.3 229 13.9 101500 68
2004-06-25 07:25:49 51°16.704 2°55.418 8.8 219 14 101510 69
2004-06-25 07:25:54 51°16.705 2°55.425 9.8 223 14 101510 69
2004-06-25 07:26:00 51°16.706 2°55.434 9.4 217 14 101510 70
2004-06-25 07:26:05 51°16.709 2°55.44 9.6 216 14 101510 70
2004-06-25 07:26:10 51°16.71 2°55.447 10.7 222 14 101510 69
2004-06-25 07:26:15 51°16.71 2°55.454 8.9 214 14 101510 69
2004-06-25 07:26:20 51°16.712 2°55.461 9.2 213 14 101500 67
2004-06-25 07:26:25 51°16.713 2°55.468 8.5 209 14 101500 67
2004-06-25 07:26:29 51°16.714 2°55.474 9.9 211 13.9 101510 67
2004-06-25 07:26:38 51°16.716 2°55.486 8.7 199 13.9 101510 67
2004-06-25 07:26:42 51°16.716 2°55.492 7.5 204 13.9 101510 67
2004-06-25 07:26:48 51°16.718 2°55.501 6.8 200 13.9 101520 66
2004-06-25 07:26:53 51°16.718 2°55.508 6.8 201 13.9 101520 66
2004-06-25 07:26:58 51°16.719 2°55.515 6.5 195 13.9 101520 66
2004-06-25 07:27:01 51°16.719 2°55.52 6.5 188 13.9 101520 66
2004-06-25 07:27:08 51°16.721 2°55.53 6.2 204 13.9 101510 68
2004-06-25 07:27:13 51°16.722 2°55.537 7.5 206 13.9 101510 68
2004-06-25 07:27:17 51°16.722 2°55.543 7.5 209 13.9 101520 69
2004-06-25 07:27:23 51°16.722 2°55.551 8 203 13.9 101520 69
2004-06-25 07:27:28 51°16.723 2°55.559 5.9 203 14 101510 69
2004-06-25 07:27:33 51°16.723 2°55.566 5.6 182 14 101510 69
2004-06-25 07:27:37 51°16.724 2°55.572 5.9 198 14 101530 70
2004-06-25 07:27:42 51°16.724 2°55.579 4.2 188 14 101530 70
2004-06-25 07:27:48 51°16.724 2°55.587 5.4 204 14 101510 69
2004-06-25 07:27:50 51°16.724 2°55.59 6.2 201 14 101510 69
2004-06-25 07:27:58 51°16.724 2°55.602 8.1 199 14 101520 69
2004-06-25 07:28:03 51°16.726 2°55.61 5.7 195 14 101520 69
2004-06-25 07:28:08 51°16.726 2°55.617 6.8 187 14.1 101520 69
2004-06-25 07:28:13 51°16.725 2°55.624 7 200 14.1 101520 69
2004-06-25 07:28:17 51°16.725 2°55.63 7.7 206 14.1 101520 69
2004-06-25 07:28:21 51°16.726 2°55.636 7 196 14.1 101520 69
2004-06-25 07:28:28 51°16.725 2°55.646 6.9 199 14.1 101530 68
2004-06-25 07:28:33 51°16.726 2°55.653 5.9 186 14.1 101530 68
2004-06-25 07:28:37 51°16.726 2°55.659 4.8 192 14 101520 68
2004-06-25 07:28:42 51°16.726 2°55.666 5.2 194 14 101520 68
2004-06-25 07:28:48 51°16.726 2°55.675 7.9 193 14 101520 67
2004-06-25 07:28:52 51°16.726 2°55.68 5.2 198 14 101520 67
2004-06-25 07:28:58 51°16.726 2°55.689 5.5 192 14.1 101530 68
2004-06-25 07:29:03 51°16.726 2°55.696 7.8 201 14.1 101530 68
2004-06-25 07:29:08 51°16.726 2°55.704 7.8 203 14.1 101520 68
2004-06-25 07:29:13 51°16.726 2°55.711 8 211 14.1 101520 68
2004-06-25 07:29:17 51°16.726 2°55.716 8.6 201 14.2 101520 69
2004-06-25 07:29:24 51°16.726 2°55.726 7.3 197 14.2 101520 69
2004-06-25 07:29:28 51°16.725 2°55.732 7 204 14.2 101520 68
2004-06-25 07:29:33 51°16.725 2°55.738 7.8 203 14.2 101520 68
2004-06-25 07:29:37 51°16.725 2°55.744 7.1 201 14.2 101520 69
2004-06-25 07:29:43 51°16.725 2°55.752 8 200 14.2 101520 69
2004-06-25 07:29:48 51°16.725 2°55.759 7.8 201 14.1 101530 68
2004-06-25 07:29:53 51°16.725 2°55.766 6.2 198 14.1 101530 68
2004-06-25 07:29:58 51°16.724 2°55.773 5.2 195 14.1 101520 66
2004-06-25 07:30:02 51°16.725 2°55.778 5.3 184 14.1 101520 66
2004-06-25 07:30:08 51°16.725 2°55.787 4.9 192 14.1 101520 67
2004-06-25 07:30:13 51°16.724 2°55.793 7.9 184 14.1 101520 67
2004-06-25 07:30:16 51°16.725 2°55.797 4.7 190 14.1 101520 68
2004-06-25 07:30:22 51°16.724 2°55.805 5.9 204 14.1 101520 68
2004-06-25 07:30:28 51°16.724 2°55.813 5.6 191 14.2 101530 70
2004-06-25 07:30:33 51°16.724 2°55.82 6.4 201 14.2 101530 70
2004-06-25 07:30:36 51°16.724 2°55.824 6.5 203 14.2 101530 69
2004-06-25 07:30:41 51°16.724 2°55.831 6.7 198 14.2 101530 69
2004-06-25 07:30:48 51°16.724 2°55.84 6 203 14.1 101520 68
2004-06-25 07:30:53 51°16.725 2°55.846 6.3 201 14.1 101520 68
2004-06-25 07:30:58 51°16.724 2°55.853 3.6 201 14.1 101520 67
2004-06-25 07:31:03 51°16.725 2°55.86 7.7 197 14.1 101520 67
2004-06-25 07:31:08 51°16.725 2°55.866 8.6 198 14.2 101530 69
2004-06-25 07:31:13 51°16.725 2°55.873 6.9 204 14.2 101530 69
2004-06-25 07:31:18 51°16.726 2°55.88 8.8 196 14.2 101520 71
2004-06-25 07:31:22 51°16.725 2°55.885 8.3 200 14.2 101520 71
2004-06-25 07:31:28 51°16.726 2°55.893 8.6 201 14.2 101520 68
2004-06-25 07:31:33 51°16.727 2°55.901 9.2 197 14.2 101520 68
2004-06-25 07:31:38 51°16.727 2°55.908 10.1 203 14.1 101520 66
2004-06-25 07:31:43 51°16.728 2°55.914 8.1 194 14.1 101520 66
2004-06-25 07:31:48 51°16.728 2°55.921 10.8 209 14.1 101520 66
2004-06-25 07:31:53 51°16.729 2°55.928 9 208 14.1 101520 66
2004-06-25 07:31:57 51°16.728 2°55.934 11.4 209 14.1 101530 66
2004-06-25 07:32:03 51°16.729 2°55.943 10.8 204 14.1 101530 66
2004-06-25 07:32:08 51°16.73 2°55.95 10.3 215 14 101530 66
2004-06-25 07:32:13 51°16.731 2°55.957 9 205 14 101530 66
2004-06-25 07:32:17 51°16.731 2°55.963 10.8 211 14 101530 67
2004-06-25 07:32:22 51°16.731 2°55.97 10.1 214 14 101530 67
2004-06-25 07:32:28 51°16.733 2°55.978 9.9 213 14 101530 68
2004-06-25 07:32:30 51°16.733 2°55.981 8.8 225 14 101530 68
2004-06-25 07:32:38 51°16.734 2°55.992 8.3 227 14 101520 68
2004-06-25 07:32:43 51°16.734 2°55.999 9.6 222 14 101520 68
2004-06-25 07:32:48 51°16.736 2°56.006 9.5 223 14.1 101520 69
2004-06-25 07:32:53 51°16.736 2°56.013 8.9 227 14.1 101520 69
2004-06-25 07:32:58 51°16.737 2°56.02 9.9 222 14.1 101530 70
2004-06-25 07:33:02 51°16.737 2°56.025 9.4 225 14.1 101530 70
2004-06-25 07:33:07 51°16.738 2°56.032 8.8 229 14 101520 69
2004-06-25 07:33:12 51°16.739 2°56.039 9 226 14 101520 69
2004-06-25 07:33:16 51°16.74 2°56.044 8.8 229 14 101530 69
2004-06-25 07:33:23 51°16.741 2°56.053 8.9 221 14 101530 69
2004-06-25 07:33:28 51°16.741 2°56.06 8.6 222 14 101520 69
2004-06-25 07:33:32 51°16.742 2°56.065 8.7 233 14 101520 69
2004-06-25 07:33:38 51°16.742 2°56.073 10.6 237 14 101520 70
2004-06-25 07:33:43 51°16.744 2°56.079 11.3 228 14 101520 70
2004-06-25 07:33:48 51°16.744 2°56.086 11.1 229 14 101520 71
2004-06-25 07:33:53 51°16.745 2°56.092 9.4 226 14 101520 71
2004-06-25 07:33:57 51°16.746 2°56.097 10.3 233 14 101520 70
2004-06-25 07:34:01 51°16.746 2°56.103 9.9 236 14 101520 70
2004-06-25 07:34:06 51°16.748 2°56.109 9.8 232 14 101520 68
2004-06-25 07:34:13 51°16.749 2°56.118 9.7 227 14 101520 68
2004-06-25 07:34:17 51°16.749 2°56.123 10.1 238 13.9 101520 68
2004-06-25 07:34:23 51°16.751 2°56.13 9.9 227 13.9 101520 68
2004-06-25 07:34:28 51°16.752 2°56.137 9.9 230 13.9 101520 69
2004-06-25 07:34:33 51°16.753 2°56.144 9.7 232 13.9 101520 69
2004-06-25 07:34:38 51°16.754 2°56.15 10.1 238 13.9 101530 68
2004-06-25 07:34:43 51°16.756 2°56.156 9 236 13.9 101530 68
2004-06-25 07:34:48 51°16.757 2°56.162 9.1 231 13.9 101520 67
2004-06-25 07:34:51 51°16.758 2°56.166 9.2 240 13.9 101520 67
2004-06-25 07:34:57 51°16.76 2°56.173 7.1 241 13.9 101520 67
2004-06-25 07:35:03 51°16.761 2°56.181 8.6 241 13.9 101520 67
2004-06-25 07:35:08 51°16.763 2°56.187 9.6 239 13.9 101520 67
2004-06-25 07:35:13 51°16.765 2°56.193 8.4 238 13.9 101520 67
2004-06-25 07:35:18 51°16.766 2°56.199 8.3 241 13.9 101520 67
2004-06-25 07:35:23 51°16.767 2°56.205 8.1 247 13.9 101520 67
2004-06-25 07:35:28 51°16.769 2°56.211 7.6 234 13.9 101510 67
2004-06-25 07:35:33 51°16.771 2°56.217 7.6 233 13.9 101510 67
2004-06-25 07:35:38 51°16.772 2°56.223 9.5 230 13.9 101520 67
2004-06-25 07:35:43 51°16.774 2°56.229 7.7 240 13.9 101520 67
2004-06-25 07:35:47 51°16.775 2°56.234 8 244 13.9 101510 68
2004-06-25 07:35:53 51°16.777 2°56.241 10 232 13.9 101510 68
2004-06-25 07:35:58 51°16.778 2°56.247 9.3 237 13.9 101520 68
2004-06-25 07:36:03 51°16.779 2°56.253 10.4 243 13.9 101520 68
2004-06-25 07:36:08 51°16.781 2°56.259 10.4 242 13.9 101520 68
2004-06-25 07:36:13 51°16.783 2°56.264 9 244 13.9 101520 68
2004-06-25 07:36:17 51°16.783 2°56.269 8.5 249 13.9 101520 67
2004-06-25 07:36:22 51°16.786 2°56.275 9.3 244 13.9 101520 67
2004-06-25 07:36:28 51°16.788 2°56.282 10.3 238 13.9 101520 67
2004-06-25 07:36:33 51°16.789 2°56.288 10.2 244 13.9 101520 67
2004-06-25 07:36:42 51°16.792 2°56.299 9.6 240 13.9 101520 67
2004-06-25 07:36:46 51°16.793 2°56.304 10 245 13.9 101520 69
2004-06-25 07:36:52 51°16.795 2°56.31 8.4 240 13.9 101520 69
2004-06-25 07:36:56 51°16.796 2°56.316 9.5 246 13.9 101520 69
2004-06-25 07:37:02 51°16.798 2°56.322 8 249 13.9 101520 68
2004-06-25 07:37:06 51°16.8 2°56.327 8.6 249 13.9 101520 68
2004-06-25 07:37:11 51°16.801 2°56.333 9.5 238 13.9 101520 68
2004-06-25 07:37:17 51°16.803 2°56.34 8.2 251 13.9 101520 68
2004-06-25 07:37:22 51°16.805 2°56.346 8.8 240 13.9 101520 68
2004-06-25 07:37:27 51°16.807 2°56.352 8.2 242 13.9 101520 68
2004-06-25 07:37:32 51°16.807 2°56.358 7.8 246 13.9 101520 68
2004-06-25 07:37:37 51°16.81 2°56.364 8.2 242 13.9 101520 68
2004-06-25 07:37:42 51°16.811 2°56.37 8.5 246 13.9 101520 68
2004-06-25 07:37:47 51°16.813 2°56.375 8.3 239 13.9 101520 68
2004-06-25 07:37:52 51°16.815 2°56.381 8.1 244 13.9 101520 68
2004-06-25 07:37:57 51°16.816 2°56.387 8.9 237 13.9 101520 68
2004-06-25 07:38:02 51°16.818 2°56.392 8.9 240 13.9 101520 68
2004-06-25 07:38:06 51°16.818 2°56.397 7.8 248 13.9 101520 68
2004-06-25 07:38:12 51°16.821 2°56.403 8.3 243 14 101520 70
2004-06-25 07:38:17 51°16.822 2°56.409 8.5 247 14 101530 70
2004-06-25 07:38:22 51°16.822 2°56.415 8.9 244 14 101530 70
2004-06-25 07:38:26 51°16.824 2°56.418 10.7 233 14 101530 70
2004-06-25 07:38:32 51°16.825 2°56.426 9.1 243 14 101520 70
2004-06-25 07:38:37 51°16.827 2°56.431 8.6 244 14 101520 70
2004-06-25 07:38:42 51°16.828 2°56.436 6.7 246 14 101520 69
2004-06-25 07:38:46 51°16.828 2°56.44 9.8 243 14 101520 69
2004-06-25 07:38:52 51°16.83 2°56.446 9.3 237 14 101520 69
2004-06-25 07:38:57 51°16.831 2°56.451 8 249 13.9 101510 68
2004-06-25 07:39:02 51°16.833 2°56.457 7.5 245 13.9 101510 68
2004-06-25 07:39:08 51°16.835 2°56.462 8.5 242 13.9 101510 68
2004-06-25 07:39:12 51°16.835 2°56.467 6.5 248 13.9 101520 68
2004-06-25 07:39:17 51°16.837 2°56.471 9.1 245 13.9 101520 68
2004-06-25 07:39:22 51°16.837 2°56.477 8.8 248 13.9 101520 68
2004-06-25 07:39:26 51°16.839 2°56.48 8.9 244 13.9 101520 68
2004-06-25 07:39:32 51°16.841 2°56.486 9.4 239 14 101520 70
2004-06-25 07:39:37 51°16.841 2°56.492 9.9 240 14 101520 70
2004-06-25 07:39:42 51°16.843 2°56.497 9.9 238 14 101520 70
2004-06-25 07:39:46 51°16.843 2°56.501 9.1 241 14 101520 70
2004-06-25 07:39:52 51°16.845 2°56.507 7 255 13.9 101520 69
2004-06-25 07:39:57 51°16.847 2°56.511 9 241 13.9 101520 69
2004-06-25 07:40:00 51°16.848 2°56.515 9.4 241 13.9 101530 68
2004-06-25 07:40:07 51°16.85 2°56.522 9.5 239 13.9 101520 67
2004-06-25 07:40:12 51°16.851 2°56.527 9.9 236 13.9 101520 67
2004-06-25 07:40:17 51°16.853 2°56.532 8.8 244 13.9 101510 69
2004-06-25 07:40:22 51°16.854 2°56.537 9.1 247 13.9 101510 69
2004-06-25 07:40:27 51°16.856 2°56.542 9.9 237 13.9 101510 69
2004-06-25 07:40:32 51°16.857 2°56.547 10.5 245 13.9 101520 68
2004-06-25 07:40:37 51°16.859 2°56.552 9.4 236 13.9 101520 68
2004-06-25 07:40:42 51°16.861 2°56.558 10.2 233 13.9 101530 68
2004-06-25 07:40:47 51°16.862 2°56.563 8.9 234 14 101510 69
2004-06-25 07:40:52 51°16.864 2°56.567 8.5 233 14 101510 69
2004-06-25 07:40:57 51°16.865 2°56.574 9.4 234 14 101510 69
2004-06-25 07:41:02 51°16.868 2°56.578 10.4 231 13.9 101520 67
2004-06-25 07:41:05 51°16.868 2°56.581 9.7 231 13.9 101520 67
2004-06-25 07:41:12 51°16.871 2°56.588 10.2 231 13.9 101520 67
2004-06-25 07:41:17 51°16.872 2°56.594 9.4 234 13.9 101520 67
2004-06-25 07:41:22 51°16.874 2°56.598 9.2 232 13.9 101530 67
2004-06-25 07:41:27 51°16.875 2°56.604 10.7 239 13.9 101530 67
2004-06-25 07:41:32 51°16.877 2°56.61 8.6 237 13.9 101520 66
2004-06-25 07:41:37 51°16.879 2°56.615 9.1 236 13.9 101530 68
2004-06-25 07:41:41 51°16.881 2°56.619 8.9 233 13.9 101530 68
2004-06-25 07:41:46 51°16.882 2°56.624 9.5 231 13.9 101530 68
2004-06-25 07:41:52 51°16.884 2°56.631 8.9 238 13.9 101530 68
2004-06-25 07:41:57 51°16.885 2°56.637 9.9 236 13.9 101530 68
2004-06-25 07:42:02 51°16.886 2°56.642 8.3 237 13.9 101530 68
2004-06-25 07:42:06 51°16.888 2°56.646 7.7 223 13.9 101530 68
2004-06-25 07:42:12 51°16.889 2°56.652 7.1 221 13.9 101520 67
2004-06-25 07:42:17 51°16.889 2°56.658 9 233 13.9 101530 67
2004-06-25 07:42:22 51°16.891 2°56.663 7.4 225 13.9 101530 67
2004-06-25 07:42:27 51°16.892 2°56.668 8.4 228 13.9 101520 67
2004-06-25 07:42:31 51°16.893 2°56.672 7.7 228 13.9 101520 67
2004-06-25 07:42:36 51°16.894 2°56.677 7.6 218 13.9 101530 68
2004-06-25 07:42:42 51°16.894 2°56.684 9 216 13.9 101530 68
2004-06-25 07:42:46 51°16.895 2°56.688 7.7 214 13.9 101530 68
2004-06-25 07:42:52 51°16.896 2°56.695 8.8 219 14 101530 70
2004-06-25 07:42:57 51°16.897 2°56.701 8.5 218 14 101530 69
2004-06-25 07:43:01 51°16.898 2°56.705 8.6 212 14 101530 69
2004-06-25 07:43:07 51°16.898 2°56.712 9.1 219 14 101540 70
2004-06-25 07:43:12 51°16.899 2°56.718 6.9 216 14 101540 70
2004-06-25 07:43:16 51°16.9 2°56.723 7.2 208 14 101540 70
2004-06-25 07:43:22 51°16.9 2°56.731 8.4 207 14 101530 70
2004-06-25 07:43:26 51°16.9 2°56.735 8.4 205 14 101530 70
2004-06-25 07:43:32 51°16.9 2°56.743 8.8 207 14 101540 69
2004-06-25 07:43:35 51°16.902 2°56.748 8.9 206 14 101520 70
2004-06-25 07:43:41 51°16.901 2°56.755 7.9 208 14 101520 70
2004-06-25 07:43:46 51°16.901 2°56.762 7.7 210 14 101520 70
2004-06-25 07:43:52 51°16.901 2°56.771 9.3 209 14 101540 70
2004-06-25 07:43:57 51°16.901 2°56.777 8.1 196 14 101540 70
2004-06-25 07:44:02 51°16.901 2°56.784 8.1 201 14 101530 70
2004-06-25 07:44:07 51°16.9 2°56.79 8.6 199 14 101530 70
2004-06-25 07:44:12 51°16.9 2°56.797 7.9   14 101530 70
2004-06-25 07:44:17 51°16.9 2°56.803 8.8 198 14 101540 70
2004-06-25 07:44:20 51°16.899 2°56.806 6.6 190 14 101540 70
2004-06-25 07:44:25 51°16.899 2°56.813 7.7 188 14 101540 70
2004-06-25 07:44:32 51°16.898 2°56.821 7.5 192 13.9 101540 70
2004-06-25 07:44:37 51°16.898 2°56.827 7.2 197 13.9 101540 70
2004-06-25 07:44:41 51°16.897 2°56.832 6.5 198 13.9 101540 69
2004-06-25 07:44:47 51°16.897 2°56.839 5.2 179 13.9 101540 69
2004-06-25 07:44:52 51°16.896 2°56.845 7 194 13.9 101540 69
2004-06-25 07:44:57 51°16.895 2°56.85 7 177 13.9 101540 69
2004-06-25 07:45:02 51°16.895 2°56.856 5.9 182 13.9 101530 68
2004-06-25 07:45:06 51°16.894 2°56.861 6.6 181 13.9 101530 68
2004-06-25 07:45:12 51°16.893 2°56.868 6.4 186 13.9 101530 69
2004-06-25 07:45:17 51°16.893 2°56.873 6.4 178 13.9 101530 69
2004-06-25 07:45:22 51°16.891 2°56.878 6.9 177 14 101550 69
2004-06-25 07:45:27 51°16.891 2°56.884 8.1 174 14 101550 69
2004-06-25 07:45:32 51°16.89 2°56.889 8.1 175 14 101550 67
2004-06-25 07:45:37 51°16.889 2°56.894 7.5 178 14 101550 67
2004-06-25 07:45:42 51°16.888 2°56.899 8.3 176 14 101550 68
2004-06-25 07:45:47 51°16.887 2°56.905 7.9 174 14 101550 68
2004-06-25 07:45:52 51°16.886 2°56.91 8.2 170 14 101540 69
2004-06-25 07:45:57 51°16.885 2°56.915 8.3 160 14 101550 70
2004-06-25 07:46:02 51°16.884 2°56.92 7.4 161 14 101550 70
2004-06-25 07:46:07 51°16.883 2°56.925 7.3 154 14 101540 70
2004-06-25 07:46:11 51°16.882 2°56.929 9.3 157 14 101540 70
2004-06-25 07:46:16 51°16.881 2°56.933 8.7 157 14 101540 70
2004-06-25 07:46:21 51°16.88 2°56.938 9.5 156 14 101540 70
2004-06-25 07:46:27 51°16.878 2°56.943 9.5 158 14 101540 70
2004-06-25 07:46:29 51°16.877 2°56.945 9.5 152 14 101540 71
2004-06-25 07:46:37 51°16.875 2°56.952 9.5 154 14 101540 71
2004-06-25 07:46:42 51°16.874 2°56.957 8.7 152 14.1 101540 72
2004-06-25 07:46:46 51°16.872 2°56.96 8.8 141 14.1 101540 72
2004-06-25 07:46:52 51°16.871 2°56.965 9.1 139 14 101550 68
2004-06-25 07:46:57 51°16.869 2°56.968 9 141 14 101550 68
2004-06-25 07:47:02 51°16.868 2°56.973 7.6 138 14 101550 68
2004-06-25 07:47:07 51°16.866 2°56.976 8.4 140 14 101550 68
2004-06-25 07:47:11 51°16.866 2°56.979 8.9 135 13.9 101540 68
2004-06-25 07:47:17 51°16.863 2°56.984 8.5 135 13.9 101540 68
2004-06-25 07:47:22 51°16.862 2°56.987 7.6 139 13.9 101550 68
2004-06-25 07:47:26 51°16.86 2°56.989 6.9 225 14 101540 70
2004-06-25 07:47:30 51°16.86 2°56.992 7.8 129 14 101540 70
2004-06-25 07:47:37 51°16.857 2°56.996 8.2 134 14 101540 69
2004-06-25 07:47:41 51°16.856 2°56.997 9.6 128 14 101540 69
2004-06-25 07:47:47 51°16.854 2°57.001 9.2 130 13.9 101540 69
2004-06-25 07:47:50 51°16.853 2°57.003 9.2 131 13.9 101540 69
2004-06-25 07:47:57 51°16.851 2°57.006 10.1 124 14 101540 70
2004-06-25 07:48:02 51°16.85 2°57.009 9.7 120 14 101540 70
2004-06-25 07:48:07 51°16.848 2°57.011 10.1 121 13.9 101540 68
2004-06-25 07:48:12 51°16.846 2°57.014 10 114 13.9 101540 68
2004-06-25 07:48:15 51°16.845 2°57.015 9.6 119 13.9 101550 68
2004-06-25 07:48:22 51°16.843 2°57.018 9.4 121 13.9 101550 68
2004-06-25 07:48:26 51°16.842 2°57.021 10.8 119 13.9 101550 68
2004-06-25 07:48:32 51°16.839 2°57.024 11.1 106 13.9 101540 69
2004-06-25 07:48:36 51°16.837 2°57.024 9.2 103 13.9 101540 69
2004-06-25 07:48:41 51°16.835 2°57.027 10.5 103 14 101540 70
2004-06-25 07:48:46 51°16.832 2°57.028 10.3 96 14 101540 70
2004-06-25 07:48:52 51°16.829 2°57.031 10.9 96 14 101550 69
2004-06-25 07:48:56 51°16.827 2°57.031 11.7 88 13.9 101540 69
2004-06-25 07:49:01 51°16.824 2°57.032 11 87 13.9 101540 69
2004-06-25 07:49:07 51°16.82 2°57.033 9 95 13.9 101540 69
2004-06-25 07:49:12 51°16.817 2°57.033 11.3 89 14 101540 69
2004-06-25 07:49:17 51°16.814 2°57.034 10.4 84 13.9 101530 69
2004-06-25 07:49:21 51°16.811 2°57.035 11.4 82 13.9 101530 69
2004-06-25 07:49:26 51°16.808 2°57.035 10 82 13.9 101530 69
2004-06-25 07:49:32 51°16.804 2°57.033 9.4 81 14 101540 70
2004-06-25 07:49:37 51°16.801 2°57.034 13.4 85 14 101540 70
2004-06-25 07:49:42 51°16.798 2°57.032 10.2 83 14 101540 70
2004-06-25 07:49:46 51°16.795 2°57.034 13.9 86 14 101540 70
2004-06-25 07:49:52 51°16.791 2°57.032 12.7 83 13.9 101530 70
2004-06-25 07:49:57 51°16.788 2°57.031 10.9 81 13.9 101540 70
2004-06-25 07:50:01 51°16.786 2°57.03 9.6 79 13.9 101540 70
2004-06-25 07:50:06 51°16.783 2°57.029 8.9 77 13.9 101540 69
2004-06-25 07:50:12 51°16.779 2°57.027 8 76 13.9 101540 69
2004-06-25 07:50:17 51°16.777 2°57.025 10.7 71 13.9 101530 68
2004-06-25 07:50:22 51°16.774 2°57.024 11.7 68 13.9 101530 68
2004-06-25 07:50:27 51°16.772 2°57.022 11.7 59 13.8 101530 69
2004-06-25 07:50:32 51°16.77 2°57.021 10.1 70 13.8 101530 69
2004-06-25 07:50:37 51°16.767 2°57.019 9.9 65 13.9 101530 70
2004-06-25 07:50:40 51°16.766 2°57.019 10.4 58 13.9 101530 70
2004-06-25 07:50:47 51°16.764 2°57.018 11.3 59 13.9 101530 70
2004-06-25 07:50:52 51°16.763 2°57.015 10 66 13.9 101530 70
2004-06-25 07:50:56 51°16.76 2°57.015 9.6 68 13.9 101550 71
2004-06-25 07:51:02 51°16.759 2°57.013 10.3 64 13.9 101550 71
2004-06-25 07:51:06 51°16.758 2°57.014 11 66 13.9 101540 72
2004-06-25 07:51:12 51°16.756 2°57.012 8.3   13.9 101540 72
2004-06-25 07:51:17 51°16.755 2°57.013 9.1 71 13.9 101540 72
2004-06-25 07:51:22 51°16.753 2°57.013 8.5 72 13.9 101520 73
2004-06-25 07:51:27 51°16.753 2°57.012 9.6 64 13.9 101520 73
2004-06-25 07:51:32 51°16.751 2°57.012 9.1 77 13.9 101530 72
2004-06-25 07:51:36 51°16.751 2°57.012 8.8 66 13.9 101530 72
2004-06-25 07:51:42 51°16.749 2°57.013 9.7 70 14 101530 72
2004-06-25 07:51:46 51°16.748 2°57.013 8.9 69 14 101530 73
2004-06-25 07:51:52 51°16.748 2°57.013 8.4 66 14 101530 73
2004-06-25 07:51:57 51°16.746 2°57.014 9.9 71 14 101530 73
2004-06-25 07:52:02 51°16.746 2°57.014 9.9 70 14 101540 73
2004-06-25 07:52:07 51°16.745 2°57.015 10.2 69 14 101540 73
2004-06-25 07:52:12 51°16.744 2°57.016 10.1 65 13.9 101540 72
2004-06-25 07:52:16 51°16.743 2°57.016 9.7 68 13.9 101540 70
2004-06-25 07:52:22 51°16.743 2°57.017 8.6 66 13.9 101540 70
2004-06-25 07:52:28 51°16.742 2°57.017 9.6 64 13.9 101540 70
2004-06-25 07:52:32 51°16.741 2°57.018 11.4 60 13.9 101530 70
2004-06-25 07:52:37 51°16.74 2°57.019 11.4 61 13.9 101540 71
2004-06-25 07:52:42 51°16.74 2°57.02 10.9 62 13.9 101540 71
2004-06-25 07:52:47 51°16.74 2°57.02 11.4 62 13.9 101540 71
2004-06-25 07:52:52 51°16.739 2°57.022 10.6 69 13.9 101540 72
2004-06-25 07:52:57 51°16.738 2°57.022 10.2 65 13.9 101540 70
2004-06-25 07:53:00 51°16.738 2°57.023 10.2 64 13.9 101540 70
2004-06-25 07:53:07 51°16.737 2°57.025 10.8 66 13.9 101540 70
2004-06-25 07:53:12 51°16.737 2°57.027 10.5 68 13.9 101540 70
2004-06-25 07:53:17 51°16.736 2°57.027 10.7 64 13.9 101530 71
2004-06-25 07:53:21 51°16.736 2°57.029 9.4 69 13.9 101530 71
2004-06-25 07:53:28 51°16.735 2°57.031 9.9 66 13.9 101530 71
2004-06-25 07:53:32 51°16.735 2°57.031 9.6 65 13.8 101540 70
2004-06-25 07:53:37 51°16.734 2°57.034 10 70 13.8 101530 69
2004-06-25 07:53:42 51°16.734 2°57.034 10 65 13.8 101530 69
2004-06-25 07:53:47 51°16.734 2°57.036 8 73 13.8 101530 69
2004-06-25 07:53:52 51°16.733 2°57.037 7.9 74 13.8 101540 70
2004-06-25 07:53:57 51°16.733 2°57.039 10 76 13.8 101560 70
2004-06-25 07:54:00 51°16.733 2°57.04 9.8 76 13.8 101560 70
2004-06-25 07:54:06 51°16.732 2°57.042 10.1 73 13.8 101540 70
2004-06-25 07:54:12 51°16.732 2°57.044 9.2 73 13.8 101540 70
2004-06-25 07:54:16 51°16.731 2°57.047 11.2 83 13.8 101540 70
2004-06-25 07:54:22 51°16.731 2°57.048 12.4 85 13.8 101550 70
2004-06-25 07:54:27 51°16.731 2°57.051 12.6 90 13.8 101550 70
2004-06-25 07:54:32 51°16.731 2°57.052 12 89 13.8 101540 69
2004-06-25 07:54:37 51°16.73 2°57.054 11.4 88 13.8 101540 69
2004-06-25 07:54:41 51°16.73 2°57.056 10.5 98 13.8 101540 69
2004-06-25 07:54:46 51°16.73 2°57.057 10.3 88 13.8 101540 69
2004-06-25 07:54:52 51°16.729 2°57.06 11 94 13.8 101540 69
2004-06-25 07:54:56 51°16.729 2°57.061 10.8 95 13.8 101540 69
2004-06-25 07:55:02 51°16.729 2°57.063 9.7 95 13.8 101540 69
2004-06-25 07:55:06 51°16.728 2°57.066 10.4 101 13.8 101540 69
2004-06-25 07:55:12 51°16.728 2°57.067 9.5 95 13.8 101540 69
2004-06-25 07:55:17 51°16.728 2°57.069 12 88 13.8 101560 70
2004-06-25 07:55:22 51°16.727 2°57.071 11.4 90 13.8 101560 70
2004-06-25 07:55:26 51°16.727 2°57.073 11.5 84 13.8 101560 70
2004-06-25 07:55:32 51°16.727 2°57.075 10.8 83 13.8 101550 71
2004-06-25 07:55:37 51°16.727 2°57.077 13.3 87 13.8 101550 71
2004-06-25 07:55:42 51°16.726 2°57.078 10.5 89 13.8 101550 71
2004-06-25 07:55:46 51°16.726 2°57.08 10.9 89 13.8 101550 71
2004-06-25 07:55:52 51°16.726 2°57.082 11.7 87 13.8 101560 71
2004-06-25 07:55:57 51°16.727 2°57.084 10.7 90 13.8 101560 71
2004-06-25 07:56:02 51°16.726 2°57.087 12.4 86 13.8 101560 71
2004-06-25 07:56:06 51°16.726 2°57.087 9.5 96 13.8 101560 71
2004-06-25 07:56:12 51°16.726 2°57.09 11.3 90 13.8 101560 70
2004-06-25 07:56:17 51°16.726 2°57.092 10.4 95 13.8 101560 71
2004-06-25 07:56:22 51°16.726 2°57.095 10.6 93 13.8 101560 71
2004-06-25 07:56:27 51°16.726 2°57.096 9.8 93 13.8 101550 71
2004-06-25 07:56:32 51°16.726 2°57.099 11.2 95 13.8 101550 71
2004-06-25 07:56:37 51°16.726 2°57.1 8.9 94 13.8 101550 71
2004-06-25 07:56:42 51°16.725 2°57.103 10 100 13.8 101560 70
2004-06-25 07:56:47 51°16.726 2°57.104 10.1 101 13.8 101560 70
2004-06-25 07:56:52 51°16.725 2°57.107 10.3 96 13.8 101550 70
2004-06-25 07:56:57 51°16.725 2°57.109 8.9 101 13.8 101540 69
2004-06-25 07:57:02 51°16.725 2°57.11 9 104 13.8 101540 69
2004-06-25 07:57:07 51°16.725 2°57.113 11.1 108 13.8 101540 69
2004-06-25 07:57:12 51°16.725 2°57.115 11.2 108 13.8 101560 69
2004-06-25 07:57:17 51°16.725 2°57.117 10.3 111 13.8 101560 69
2004-06-25 07:57:22 51°16.724 2°57.118 10.3 100 13.8 101560 71
2004-06-25 07:57:26 51°16.724 2°57.121 11.2 102 13.8 101560 71
2004-06-25 07:57:32 51°16.724 2°57.123 11.1 107 13.9 101560 71
2004-06-25 07:57:35 51°16.724 2°57.124 11.6 105 13.9 101560 71
2004-06-25 07:57:42 51°16.724 2°57.127 11.6 102 13.9 101550 71
2004-06-25 07:57:47 51°16.724 2°57.128 9.3 113 13.9 101550 71
2004-06-25 07:57:52 51°16.723 2°57.131 10.6 101 13.9 101570 71
2004-06-25 07:57:57 51°16.723 2°57.133 11.3 107 13.9 101570 71
2004-06-25 07:58:01 51°16.723 2°57.134 10.6 105 13.9 101560 70
2004-06-25 07:58:06 51°16.723 2°57.136 9.8 100 13.9 101550 71
2004-06-25 07:58:10 51°16.722 2°57.138 9 106 13.9 101550 71
2004-06-25 07:58:17 51°16.722 2°57.141 9.8 104 13.9 101550 71
2004-06-25 07:58:21 51°16.722 2°57.143 10.4 101 13.8 101570 70
2004-06-25 07:58:27 51°16.722 2°57.145 10.4 106 13.8 101570 70
2004-06-25 07:58:29 51°16.722 2°57.146 10.3 110 13.8 101550 69
2004-06-25 07:58:37 51°16.721 2°57.148 10 107 13.8 101550 69
2004-06-25 07:58:42 51°16.721 2°57.15 9.7 98 13.8 101560 71
2004-06-25 07:58:47 51°16.72 2°57.152 11.6 100 13.8 101560 71
2004-06-25 07:58:52 51°16.72 2°57.154 9.5 102 13.9 101580 72
2004-06-25 07:58:57 51°16.72 2°57.156 10.5 98 13.9 101580 72
2004-06-25 07:59:02 51°16.719 2°57.158 11.5 101 13.9 101560 72
2004-06-25 07:59:07 51°16.719 2°57.16 10.8 98 13.9 101560 72
2004-06-25 07:59:12 51°16.719 2°57.161 10.3 102 13.9 101560 71
2004-06-25 07:59:17 51°16.718 2°57.163 9.8 102 13.9 101560 71
2004-06-25 07:59:22 51°16.718 2°57.164 9.7 103 13.9 101570 70
2004-06-25 07:59:27 51°16.717 2°57.166 9.9 108 13.9 101570 70
2004-06-25 07:59:32 51°16.717 2°57.167 10.2 98 13.9 101560 69
2004-06-25 07:59:37 51°16.717 2°57.169 9.9 99 13.9 101560 69
2004-06-25 07:59:41 51°16.716 2°57.171 10.3 100 13.8 101570 69
2004-06-25 07:59:45 51°16.716 2°57.172 9.8 102 13.8 101570 69
2004-06-25 07:59:52 51°16.715 2°57.174 10.8 101 13.8 101560 70
2004-06-25 07:59:57 51°16.715 2°57.176 10.7 102 13.8 101560 70
2004-06-25 08:00:02 51°16.715 2°57.178 10.5 98 13.8 101570 69
2004-06-25 08:00:07 51°16.714 2°57.179 10.5 99 13.8 101570 69
2004-06-25 08:00:12 51°16.714 2°57.181 10.1 96 13.8 101560 69
2004-06-25 08:00:17 51°16.714 2°57.183 10.8 91 13.8 101560 69
2004-06-25 08:00:22 51°16.713 2°57.184 10 99 13.8 101570 69
2004-06-25 08:00:27 51°16.713 2°57.186 11.2 99 13.8 101570 69
2004-06-25 08:00:32 51°16.713 2°57.187 10.4 96 13.8 101570 69
2004-06-25 08:00:37 51°16.712 2°57.189 9.8 100 13.8 101570 69
2004-06-25 08:00:42 51°16.712 2°57.191 11.4 94 13.8 101570 69
2004-06-25 08:00:47 51°16.712 2°57.192 10.8 91 13.8 101570 69
2004-06-25 08:00:52 51°16.712 2°57.194 9.2 93 13.8 101550 70
2004-06-25 08:00:57 51°16.711 2°57.196 9.7 101 13.8 101550 70
2004-06-25 08:01:02 51°16.711 2°57.199 9.7 93 13.8 101560 69
2004-06-25 08:01:07 51°16.711 2°57.201 11.9 90 13.8 101560 69
2004-06-25 08:01:12 51°16.711 2°57.203 10.4 94 13.8 101560 68
2004-06-25 08:01:17 51°16.711 2°57.204 9.4 104 13.8 101560 68
2004-06-25 08:01:22 51°16.711 2°57.206 9.5 97 13.8 101570 68
2004-06-25 08:01:27 51°16.71 2°57.208 10.6 95 13.8 101570 68
2004-06-25 08:01:32 51°16.71 2°57.209 10.7 98 13.8 101580 69
2004-06-25 08:01:37 51°16.71 2°57.212 10 91 13.8 101580 69
2004-06-25 08:01:42 51°16.71 2°57.212 9.4 98 13.8 101570 70
2004-06-25 08:01:47 51°16.71 2°57.215 10.9 94 13.8 101570 70
2004-06-25 08:01:52 51°16.71 2°57.217 9.5 101 13.8 101560 70
2004-06-25 08:01:57 51°16.71 2°57.219 12.6 92 13.8 101560 70
2004-06-25 08:02:02 51°16.709 2°57.22 11.4 100 13.8 101570 70
2004-06-25 08:02:07 51°16.709 2°57.222 10.5 90 13.8 101570 70
2004-06-25 08:02:12 51°16.708 2°57.223 11.2 97 13.8 101570 71
2004-06-25 08:02:17 51°16.708 2°57.225 11.8 95 13.8 101570 71
2004-06-25 08:02:22 51°16.708 2°57.227 11.7 95 13.9 101560 72
2004-06-25 08:02:26 51°16.707 2°57.227 10.7 97 13.9 101560 72
2004-06-25 08:02:30 51°16.707 2°57.229 11 98 13.9 101560 72
2004-06-25 08:02:37 51°16.706 2°57.231 10.9 98 13.9 101560 72
2004-06-25 08:02:41 51°16.706 2°57.232 9.5 101 13.9 101570 71
2004-06-25 08:02:46 51°16.706 2°57.234 9.3 99 13.9 101570 71
2004-06-25 08:02:52 51°16.705 2°57.236 8.4 106 13.9 101570 70
2004-06-25 08:02:56 51°16.705 2°57.238 8.9 104 13.9 101570 70
2004-06-25 08:03:02 51°16.704 2°57.24 8.3 113 13.9 101570 70
2004-06-25 08:03:07 51°16.704 2°57.242 8 113 13.9 101570 70
2004-06-25 08:03:12 51°16.703 2°57.243 10.3 107 13.9 101560 71
2004-06-25 08:03:17 51°16.703 2°57.244 8.6 112 13.9 101560 71
2004-06-25 08:03:22 51°16.702 2°57.246 9.6 115 13.9 101570 72
2004-06-25 08:03:24 51°16.702 2°57.247 10.2 103 13.9 101570 72
2004-06-25 08:03:32 51°16.701 2°57.249 10.7 102 13.9 101570 73
2004-06-25 08:03:37 51°16.701 2°57.252 11.8 102 13.9 101570 73
2004-06-25 08:03:42 51°16.7 2°57.253 11.8 102 14 101570 74
2004-06-25 08:03:47 51°16.699 2°57.254 11.5 96 14 101570 74
2004-06-25 08:03:52 51°16.698 2°57.255 9.5 103 14 101560 74
2004-06-25 08:03:57 51°16.697 2°57.256 9.9 89 14 101570 72
2004-06-25 08:04:02 51°16.695 2°57.258 11.7 96 14 101570 72
2004-06-25 08:04:07 51°16.694 2°57.257 9.4 82 14 101570 72
2004-06-25 08:04:12 51°16.692 2°57.257 12.1 87 14 101570 71
2004-06-25 08:04:17 51°16.69 2°57.257 8.5 77 14 101570 71
2004-06-25 08:04:22 51°16.688 2°57.256 10 77 13.9 101560 71
2004-06-25 08:04:27 51°16.685 2°57.257 13.1 65 13.9 101560 71
2004-06-25 08:04:32 51°16.683 2°57.254 10.5 69 13.9 101560 71
2004-06-25 08:04:37 51°16.68 2°57.254 11 70 13.9 101560 71
2004-06-25 08:04:41 51°16.678 2°57.252 11 56 13.9 101580 71
2004-06-25 08:04:47 51°16.675 2°57.25 11.2 58 13.9 101580 71
2004-06-25 08:04:52 51°16.674 2°57.247 11.7 55 13.9 101570 71
2004-06-25 08:04:57 51°16.671 2°57.243 10.3 47 13.9 101570 71
2004-06-25 08:05:01 51°16.67 2°57.241 11.7 45 13.9 101560 70
2004-06-25 08:05:06 51°16.667 2°57.238 11.3 49 13.8 101560 70
2004-06-25 08:05:12 51°16.665 2°57.233 11.2 36 13.8 101560 70
2004-06-25 08:05:17 51°16.663 2°57.229 10.9 44 13.8 101560 70
2004-06-25 08:05:21 51°16.662 2°57.225 10.6 38 13.8 101550 69
2004-06-25 08:05:26 51°16.66 2°57.221 11.8 34 13.8 101550 69
2004-06-25 08:05:32 51°16.658 2°57.215 11 32 13.8 101550 69
2004-06-25 08:05:37 51°16.656 2°57.21 11.7 26 13.8 101550 69
2004-06-25 08:05:42 51°16.654 2°57.205 11.3 24 13.8 101550 69
2004-06-25 08:05:47 51°16.654 2°57.199 11.8 23 13.8 101550 69
2004-06-25 08:05:52 51°16.652 2°57.194 10.8 25 13.8 101540 69
2004-06-25 08:05:56 51°16.652 2°57.189 11.3 19 13.8 101540 69
2004-06-25 08:06:01 51°16.65 2°57.183 11.7 16 13.7 101550 69
2004-06-25 08:06:06 51°16.65 2°57.177 11.2 17 13.7 101550 69
2004-06-25 08:06:12 51°16.65 2°57.171 12.3 18 13.8 101550 71
2004-06-25 08:06:17 51°16.649 2°57.165 10.8 14 13.8 101550 71
2004-06-25 08:06:20 51°16.649 2°57.162 11.8 15 13.8 101540 71
2004-06-25 08:06:26 51°16.648 2°57.156 11.2 14 13.8 101540 71
2004-06-25 08:06:32 51°16.648 2°57.15 10.6 18 13.8 101560 71
2004-06-25 08:06:37 51°16.647 2°57.144 10.8 17 13.8 101560 71
2004-06-25 08:06:40 51°16.647 2°57.141 12.2 10 13.8 101550 70
2004-06-25 08:06:46 51°16.647 2°57.134 11.3 16 13.8 101550 70
2004-06-25 08:06:52 51°16.647 2°57.128 12.1 10 13.8 101540 69
2004-06-25 08:06:57 51°16.647 2°57.123 11.7 12 13.8 101540 69
2004-06-25 08:07:02 51°16.647 2°57.117 10.8 11 13.8 101550 69
2004-06-25 08:07:07 51°16.647 2°57.111 9.7 12 13.8 101550 69
2004-06-25 08:07:12 51°16.647 2°57.106 10.4 10 13.8 101550 70
2004-06-25 08:07:17 51°16.648 2°57.1 10.9 7 13.8 101550 70
2004-06-25 08:07:20 51°16.648 2°57.096 10.7 5 13.8 101550 70
2004-06-25 08:07:26 51°16.649 2°57.089 10.4 10 13.8 101550 70
2004-06-25 08:07:32 51°16.649 2°57.082 9.8 11 13.8 101560 71
2004-06-25 08:07:36 51°16.649 2°57.077 10.8 7 13.8 101560 71
2004-06-25 08:07:42 51°16.651 2°57.07 12.5 11 13.8 101550 71
2004-06-25 08:07:47 51°16.651 2°57.064 13.1 6 13.8 101550 71
2004-06-25 08:07:52 51°16.652 2°57.057 12 9 13.9 101560 72
2004-06-25 08:07:56 51°16.652 2°57.053 12 9 13.9 101560 72
2004-06-25 08:08:01 51°16.653 2°57.046 12 9 14 101560 73
2004-06-25 08:08:07 51°16.653 2°57.039 12.3 7 14 101560 73
2004-06-25 08:08:12 51°16.653 2°57.033 11.5 6 13.9 101540 71
2004-06-25 08:08:16 51°16.654 2°57.028 11.9 10 13.9 101540 71
2004-06-25 08:08:22 51°16.654 2°57.02 12.4 8 13.9 101550 70
2004-06-25 08:08:26 51°16.655 2°57.015 11.4 11 13.9 101550 70
2004-06-25 08:08:32 51°16.656 2°57.008 11.6 12 13.9 101550 69
2004-06-25 08:08:37 51°16.655 2°57.002 11.6 16 13.9 101550 69
2004-06-25 08:08:42 51°16.656 2°56.996 11.8 13 13.9 101570 69
2004-06-25 08:08:47 51°16.656 2°56.989 11.4 21 13.9 101570 69
2004-06-25 08:08:52 51°16.656 2°56.983 11.5 18 13.9 101540 69
2004-06-25 08:08:57 51°16.657 2°56.977 10.1 16 13.9 101540 69
2004-06-25 08:09:01 51°16.657 2°56.972 10.5 13 13.9 101540 69
2004-06-25 08:09:07 51°16.657 2°56.964 9.5 16 13.9 101540 69
2004-06-25 08:09:10 51°16.657 2°56.961 10.9 17 13.9 101540 69
2004-06-25 08:09:16 51°16.656 2°56.954 10.7 22 13.9 101540 69
2004-06-25 08:09:21 51°16.656 2°56.949 12.4 19 13.9 101550 69
2004-06-25 08:09:27 51°16.656 2°56.943 11.9 24 13.9 101550 69
2004-06-25 08:09:32 51°16.655 2°56.937 12 25 13.9 101560 69
2004-06-25 08:09:36 51°16.655 2°56.933 11.2 20 13.9 101560 69
2004-06-25 08:09:42 51°16.654 2°56.927 11.3 27 13.9 101560 69
2004-06-25 08:09:47 51°16.654 2°56.922 11.4 22 13.9 101560 69
2004-06-25 08:09:52 51°16.653 2°56.917 12.6 30 13.9 101540 69
2004-06-25 08:09:57 51°16.653 2°56.912 12.6 31 13.9 101540 69
2004-06-25 08:10:00 51°16.652 2°56.909 12.3 29 13.9 101550 69
2004-06-25 08:10:07 51°16.651 2°56.901 11.6 22 13.9 101550 69
2004-06-25 08:10:12 51°16.65 2°56.896 11.9 25 13.9 101540 70